Location: Huppendorf
(49.9333°N, 11.1500°E)
Time: 07:02:06
(UTC+00:00)

STARLINK-1024 - Pass Details

Date: 27 February 2020
Orbit: 549 x 551 km, 53.0° (Epoch: 31 March)

Event Time Altitude Azimuth Distance (km) Brightness Sun altitude
Rises 18:21:40 0° 260° (W) 2,715 8.8 -15.0°
Reaches altitude 10° 18:23:54 10° 263° (W) 1,823 7.6 -15.3°
Maximum altitude 18:28:02 66° 346° (NNW) 604 3.8 -16.0°
Enters shadow 18:30:09 27° 62° (ENE) 1,075 4.6 -16.3°
